Location: De Platvoet
(52.2667°N, 6.1667°E)
Time: 14:59:21
(UTC+00:00)

CZ-4C R/B - Pass Details

Date: 15 May 2026
Orbit: 474 x 1503 km, 63.4° (Epoch: 10 June)

Event Time Altitude Azimuth Distance (km) Brightness Sun altitude
Rises 20:54:00 0° 262° (W) 2,885 5.4 -10.9°
Reaches altitude 10° 20:56:12 10° 271° (W) 2,098 4.8 -11.1°
Maximum altitude 21:00:38 37° 339° (NNW) 1,226 3.8 -11.5°
Drops below altitude 10° 21:06:20 10° 46° (NE) 2,709 5.0 -12.0°
Sets 21:09:31 0° 54° (NE) 3,850 5.6 -12.3°
